{"data":{"norad_id":51463,"intl_designator":"2022-010H","name":"STARLINK-3419","alt_names":[],"object_type":"PAYLOAD","status":"ACTIVE","operator":null,"country":"US","launch_date":"2022-02-03","launch_site_code":"AFETR","launch_vehicle":null,"mission":null,"orbit_class":"UNKNOWN","rcs_meters":null,"size_class":null,"mass_kg":null,"dimensions":null,"purposes":["comms"],"wikipedia_slug":null,"has_3d_model":false,"image_url":null,"decayed_at":null,"tle_current":{"epoch":"2026-05-25T02:45:57.479040Z","epoch_age_seconds":68325,"freshness":"FRESH","line1":"1 51463U 22010H   26145.11524860  .00000316  00000+0  37976-4 0  9994","line2":"2 51463  53.2140 296.0275 0001458  95.8860 264.2299 15.08837888238059","mean_motion":15.08837888,"eccentricity":0.0001458,"inclination_deg":53.214,"raan_deg":296.0275,"arg_perigee_deg":95.886,"mean_anomaly_deg":264.2299,"bstar":3.7976e-5,"rev_number":23805,"period_min":95.437688266746,"perigee_km":538.74121660879,"apogee_km":540.75847241265,"semimajor_km":6917.8868445107,"source":"CELESTRAK","updated_at":"2026-05-25T13:38:16.918014Z"}}}